TimeCST,TemperatureF,Dew PointF,Humidity,Sea Level PressureIn,VisibilityMPH,Wind Direction,Wind SpeedMPH,Gust SpeedMPH,PrecipitationIn,Events,Conditions,WindDirDegrees,DateUTC
12:15 AM,53.6,53.6,100,30.05,10.0,East,8.1,-,N/A,,Unknown,90,2013-01-10 06:15:00
12:35 AM,53.6,53.6,100,30.05,5.0,East,8.1,-,N/A,Rain,Rain,100,2013-01-10 06:35:00
12:55 AM,53.6,53.6,100,30.04,7.0,East,9.2,-,N/A,,Light Drizzle,100,2013-01-10 06:55:00
2:15 AM,53.6,53.6,100,30.00,7.0,East,12.7,-,0.01,Rain,Rain,100,2013-01-10 08:15:00
2:35 AM,53.6,53.6,100,29.99,7.0,ESE,10.4,16.1,0.05,Rain,Rain,110,2013-01-10 08:35:00
2:55 AM,53.6,53.6,100,29.98,4.0,ESE,11.5,17.3,0.05,Rain,Light Rain,120,2013-01-10 08:55:00
3:15 AM,53.6,53.6,100,29.97,4.0,East,11.5,16.1,N/A,Rain,Light Rain,100,2013-01-10 09:15:00
3:35 AM,53.6,53.6,100,29.97,7.0,ESE,12.7,-,N/A,,Unknown,110,2013-01-10 09:35:00
3:55 AM,53.6,53.6,100,29.96,7.0,ESE,11.5,17.3,N/A,,Unknown,110,2013-01-10 09:55:00
4:15 AM,53.6,53.6,100,29.96,3.0,ESE,10.4,-,N/A,,Mist,110,2013-01-10 10:15:00
4:35 AM,53.6,53.6,100,29.94,4.0,ESE,12.7,17.3,N/A,Rain,Light Rain,110,2013-01-10 10:35:00
4:55 AM,53.6,53.6,100,29.94,4.0,ESE,10.4,-,N/A,,Light Drizzle,110,2013-01-10 10:55:00
5:15 AM,53.6,53.6,100,29.93,4.0,ESE,8.1,-,N/A,,Mist,120,2013-01-10 11:15:00
5:35 AM,53.6,53.6,100,29.92,3.0,ESE,6.9,-,N/A,,Drizzle,120,2013-01-10 11:35:00
8:55 AM,55.4,55.4,100,29.92,10.0,SSE,5.8,-,N/A,,Overcast,150,2013-01-10 14:55:00
9:55 AM,57.2,57.2,100,29.90,10.0,SSE,6.9,-,N/A,,Mostly Cloudy,160,2013-01-10 15:55:00
10:13 AM,57.2,57.2,100,29.90,10.0,SSE,6.9,-,N/A,,Scattered Clouds,160,2013-01-10 16:13:00
10:55 AM,59.0,59.0,100,29.90,10.0,South,8.1,-,N/A,,Mostly Cloudy,180,2013-01-10 16:55:00
11:55 AM,59.0,57.2,94,29.87,10.0,SSE,8.1,-,N/A,,Mostly Cloudy,160,2013-01-10 17:55:00
10:35 PM,50.0,46.4,87,29.90,10.0,SSW,5.8,-,N/A,,Clear,200,2013-01-11 04:35:00
10:55 PM,48.2,46.4,93,29.91,10.0,SSW,6.9,-,N/A,,Clear,200,2013-01-11 04:55:00
11:15 PM,50.0,46.4,87,29.91,10.0,SSW,8.1,-,N/A,,Clear,200,2013-01-11 05:15:00
11:35 PM,50.0,46.4,87,29.91,10.0,South,8.1,-,N/A,,Clear,190,2013-01-11 05:35:00
11:55 PM,48.2,46.4,93,29.91,10.0,South,5.8,-,N/A,,Clear,180,2013-01-11 05:55:00